Probability
35 42 58 58 48 45 45 39 48 39 39 42 42 48 55 55 58 58 61 65 61 58 58 68 65 68 71 65 61 48 45 45 45 45 45 52 48 45 45 52 55 55 55
23 29 55 48 42 45 42 48 48 42 35 39 32 39 45 48 48 52 52 58 48 48 52 55 55 61 61 55 45 45 42 42 45 45 48 52 42 45 45 55 58 48 52
23 29 39 39 42 32 29 39 42 29 29 29 26 29 35 42 39 39 42 45 48 45 32 42 52 55 52 48 42 42 48 42 48 48 55 29 48 52 55 48 55 58 45
23 23 23 48 45 35 29 26 26 29 19 26 23 19 23 29 29 29 29 32 35 35 29 26 29 39 39 42 45 39 32 45 48 58 35 29 29 55 58 58 52 48 48
19 26 35 45 39 29 29 29 26 19 23 16 13 13 19 19 26 19 23 23 26 26 23 19 23 29 29 29 35 35 29 45 48 39 29 26 26 55 61 58 55 48 55
23 23 32 39 35 29 26 23 19 16 10 13 13 16 16 19 13 13 13 10 10 13 16 19 23 23 26 29 35 29 29 42 35 26 26 23 26 58 58 58 58 58 52
16 16 19 29 19 23 23 19 19 16 10 6 6 10 13 13 13 13 10 10 10 13 13 16 13 16 13 23 26 26 23 39 23 23 26 29 39 65 61 55 52 52 48
13 13 13 26 26 19 10 10 23 16 6 6 10 10 10 10 13 13 10 6 6 13 13 13 10 10 16 19 16 19 26 39 19 19 23 29 42 55 55 52 52 52 42
10 10 10 10 6 10 10 10 6 10 10 13 6 6 6 3 10 10 10 6 6 13 10 10 10 19 16 13 13 19 29 39 13 16 13 23 45 42 45 48 39 39 39
6 6 6 6 3 3 6 6 10 10 6 10 10 10 10 13 13 10 13 6 6 3 10 6 16 13 10 13 13 26 32 29 13 16 16 29 45 39 42 48 45 45 42
6 6 6 0 0 3 3 6 6 6 3 6 10 10 10 3 0 3 3 6 3 3 6 10 10 10 10 16 26 23 23 6 10 16 19 35 35 42 45 39 35 48 39
6 6 6 3 3 3 3 3 3 3 3 0 0 0 0 0 0 0 3 6 6 3 3 6 10 13 6 10 13 16 3 3 13 16 19 39 39 42 35 35 35 39 32
6 3 6 3 0 0 0 0 3 3 0 0 0 3 3 0 0 0 0 0 0 3 0 0 6 6 6 6 3 3 3 3 10 6 19 48 45 39 35 39 29 35 32
6 6 3 3 3 0 0 0 0 0 0 0 0 0 3 3 0 0 0 0 0 0 0 3 6 3 3 3 3 3 3 3 6 10 13 35 35 35 35 32 26 29 32
3 3 6 3 3 0 0 0 0 0 0 0 0 0 3 3 0 0 0 3 0 3 3 0 3 3 3 6 6 6 6 6 6 13 10 29 32 32 32 35 23 19 26
0 0 6 3 3 0 0 0 0 0 0 0 0 0 0 0 0 0 0 0 0 0 0 3 3 6 3 6 6 6 6 6 6 6 6 10 26 26 23 23 19 19 19
0 0 0 0 0 0 0 0 0 0 0 0 0 0 0 0 0 0 0 0 0 0 0 0 3 6 6 3 6 6 6 3 3 3 10 6 6 10 19 16 19 19 16
0 0 0 0 0 0 0 0 0 0 0 0 0 0 0 0 0 0 0 0 0 0 0 0 3 3 3 6 6 6 3 3 0 6 3 3 3 3 6 13 16 13 16
0 3 0 0 0 0 0 0 0 0 0 0 0 0 0 0 0 0 0 0 0 0 0 0 0 3 3 3 3 3 3 3 0 3 3 3 3 3 3 3 6 13 10
3 0 0 0 0 0 0 0 0 0 0 0 0 0 0 0 0 0 0 0 0 0 0 0 0 3 3 3 0 0 0 0 3 6 6 3 3 3 3 3 3 3 10
3 0 0 0 0 0 0 0 0 0 0 0 0 0 0 0 0 0 0 0 0 0 0 0 0 0 0 0 0 0 0 0 3 6 6 3 3 3 0 3 3 3 3
3 0 0 0 0 0 0 0 0 0 0 0 0 0 0 0 0 0 0 0 0 0 0 0 0 0 0 0 0 0 0 0 0 0 6 3 3 0 0 0 3 3 0
3 0 0 0 0 0 0 0 0 0 0 0 0 0 0 0 0 0 0 0 0 0 0 0 0 0 0 0 0 0 0 0 0 0 6 3 3 3 0 0 3 0 0
6 0 0 0 0 0 0 0 0 0 0 0 0 0 0 0 0 0 0 0 0 0 0 0 0 0 0 0 0 0 0 0 0 0 3 0 3 3 3 3 3 0 0
3 3 0 0 0 0 0 0 0 0 0 0 0 0 0 0 0 0 0 0 0 0 3 0 0 0 0 0 0 0 0 0 0 0 0 0 0 0 3 0 0 0 0
6 10 0 0 0 0 0 0 0 0 0 0 0 0 0 0 0 0 0 0 3 0 0 3 3 0 0 0 0 0 0 0 0 0 0 0 0 0 0 0 0 0 0
Height
5887 5886 5887 5886 5886 5886 5886 5886 5886 5885 5885 5885 5885 5885 5884 5885 5885 5885 5885 5885 5885 5885 5885 5885 5885 5885 5885 5886 5886 5887 5887 5887 5887 5888 5888 5889 5889 5889 5890 5890 5890 5891 5891
5886 5886 5886 5886 5886 5885 5885 5885 5885 5885 5884 5884 5884 5884 5884 5884 5884 5884 5884 5884 5884 5884 5884 5884 5884 5884 5885 5885 5885 5885 5885 5886 5886 5886 5887 5887 5887 5888 5888 5889 5889 5889 5890
5885 5885 5885 5885 5885 5885 5884 5884 5884 5884 5883 5883 5883 5883 5883 5883 5883 5883 5884 5883 5883 5883 5883 5883 5883 5883 5883 5884 5884 5884 5884 5884 5885 5885 5885 5886 5886 5886 5887 5887 5888 5888 5888
5884 5884 5884 5884 5884 5883 5883 5883 5883 5883 5882 5882 5882 5882 5882 5882 5882 5882 5882 5882 5882 5882 5882 5882 5881 5882 5882 5882 5882 5882 5882 5883 5883 5883 5884 5884 5884 5885 5885 5886 5886 5886 5887
5883 5882 5882 5882 5882 5882 5882 5882 5882 5882 5881 5881 5881 5881 5881 5881 5881 5881 5881 5881 5881 5881 5881 5880 5880 5880 5880 5880 5880 5880 5880 5881 5881 5881 5882 5882 5882 5883 5883 5884 5884 5885 5885
5882 5881 5881 5881 5881 5881 5880 5880 5880 5880 5880 5880 5880 5880 5880 5880 5880 5880 5879 5879 5879 5879 5879 5879 5878 5878 5878 5878 5878 5878 5878 5878 5879 5879 5879 5880 5880 5881 5881 5882 5882 5883 5883
5880 5880 5880 5879 5879 5879 5879 5879 5879 5879 5879 5878 5878 5879 5879 5879 5878 5878 5878 5877 5877 5877 5877 5877 5877 5876 5876 5876 5876 5876 5876 5876 5877 5877 5877 5877 5878 5878 5879 5879 5880 5880 5881
5879 5878 5878 5878 5877 5877 5877 5877 5877 5877 5877 5877 5877 5877 5877 5877 5877 5876 5876 5876 5876 5876 5875 5875 5875 5874 5874 5874 5874 5874 5874 5874 5874 5875 5875 5875 5875 5876 5876 5877 5877 5878 5878
5877 5877 5876 5876 5875 5875 5875 5875 5875 5875 5875 5875 5875 5876 5876 5875 5875 5875 5875 5874 5874 5874 5874 5873 5873 5873 5873 5872 5872 5872 5872 5872 5872 5872 5872 5872 5873 5873 5874 5874 5875 5875 5876
5875 5875 5875 5874 5874 5874 5873 5873 5873 5873 5874 5874 5874 5874 5874 5874 5874 5873 5873 5873 5873 5872 5872 5872 5871 5871 5871 5870 5870 5870 5870 5870 5870 5870 5870 5870 5870 5870 5871 5872 5872 5873 5873
5873 5873 5872 5872 5872 5872 5872 5872 5871 5872 5872 5872 5872 5872 5872 5872 5872 5872 5872 5871 5871 5871 5870 5870 5870 5869 5869 5869 5869 5869 5868 5868 5868 5867 5867 5868 5868 5868 5868 5869 5869 5870 5871
5872 5871 5871 5871 5870 5870 5870 5870 5870 5870 5870 5870 5871 5871 5871 5871 5871 5870 5870 5870 5870 5869 5869 5868 5868 5868 5867 5867 5867 5867 5866 5866 5866 5866 5866 5866 5866 5866 5866 5866 5867 5868 5868
5870 5869 5869 5869 5869 5868 5868 5868 5868 5868 5869 5869 5869 5869 5869 5869 5869 5869 5869 5869 5868 5868 5867 5867 5866 5866 5866 5866 5866 5865 5865 5864 5864 5864 5864 5864 5864 5864 5864 5864 5865 5866 5866
5868 5867 5867 5867 5867 5867 5867 5866 5866 5867 5867 5868 5868 5868 5868 5868 5868 5868 5868 5867 5867 5867 5866 5866 5865 5865 5865 5865 5864 5864 5864 5863 5863 5863 5863 5863 5863 5863 5863 5863 5863 5864 5864
5866 5866 5865 5865 5865 5865 5865 5865 5865 5865 5866 5866 5866 5866 5866 5866 5866 5866 5866 5866 5866 5865 5865 5865 5864 5864 5864 5864 5863 5863 5863 5862 5862 5862 5862 5862 5862 5862 5862 5862 5862 5862 5862
5864 5864 5864 5864 5864 5864 5864 5864 5864 5864 5864 5865 5865 5865 5865 5865 5865 5865 5865 5865 5865 5865 5864 5864 5864 5864 5863 5863 5862 5862 5862 5862 5861 5861 5861 5861 5861 5861 5861 5860 5860 5861 5861
5862 5862 5862 5862 5862 5862 5862 5863 5863 5863 5863 5863 5864 5864 5864 5864 5864 5864 5864 5864 5864 5864 5864 5863 5863 5863 5863 5862 5862 5862 5861 5861 5861 5861 5861 5861 5861 5860 5860 5860 5859 5859 5859
5860 5860 5860 5861 5861 5861 5861 5861 5862 5862 5862 5862 5862 5863 5863 5863 5863 5863 5863 5864 5864 5863 5863 5863 5863 5863 5862 5862 5862 5861 5861 5861 5861 5861 5861 5861 5860 5860 5859 5859 5859 5859 5858
5859 5859 5859 5859 5859 5859 5860 5860 5860 5861 5861 5861 5862 5862 5862 5862 5862 5863 5863 5863 5863 5863 5863 5863 5862 5862 5862 5862 5861 5861 5861 5861 5861 5861 5861 5861 5860 5860 5859 5859 5858 5858 5858
5857 5857 5857 5857 5858 5858 5858 5859 5859 5859 5860 5860 5861 5861 5861 5861 5862 5862 5862 5862 5863 5863 5863 5862 5862 5862 5862 5862 5861 5861 5861 5861 5861 5861 5861 5861 5860 5860 5859 5859 5858 5858 5857
5855 5855 5855 5856 5856 5857 5857 5857 5858 5858 5859 5859 5860 5860 5860 5861 5861 5862 5862 5862 5862 5863 5862 5862 5862 5862 5862 5861 5862 5862 5861 5861 5861 5861 5861 5861 5861 5860 5860 5859 5858 5858 5857
5853 5853 5853 5854 5855 5855 5856 5856 5857 5857 5858 5859 5859 5860 5860 5861 5861 5862 5862 5862 5863 5863 5862 5863 5862 5862 5862 5862 5862 5862 5862 5863 5862 5862 5862 5861 5861 5860 5860 5859 5858 5858 5857
5850 5851 5851 5852 5852 5853 5854 5855 5855 5856 5857 5858 5859 5859 5860 5861 5861 5862 5862 5862 5863 5863 5863 5863 5863 5862 5862 5862 5862 5862 5862 5862 5862 5862 5862 5862 5861 5861 5860 5859 5859 5858 5857
5848 5848 5849 5849 5850 5851 5852 5853 5854 5855 5856 5857 5858 5859 5860 5860 5861 5861 5862 5862 5863 5863 5863 5863 5863 5863 5863 5863 5862 5862 5863 5862 5863 5862 5862 5862 5861 5861 5860 5860 5859 5858 5857
5845 5845 5846 5847 5848 5849 5850 5851 5852 5854 5855 5856 5857 5858 5859 5860 5861 5861 5862 5862 5863 5863 5863 5863 5863 5862 5863 5863 5862 5862 5862 5862 5862 5862 5862 5862 5861 5861 5860 5860 5859 5858 5857
5842 5843 5843 5845 5846 5846 5848 5849 5851 5852 5854 5855 5856 5858 5859 5859 5860 5861 5862 5862 5862 5863 5863 5863 5862 5862 5862 5862 5862 5862 5862 5862 5862 5862 5862 5862 5861 5861 5860 5859 5859 5858 5857
Wind_Speed
4 4 4 4 4 4 4 4 4 3 3 3 3 3 3 2 3 3 3 3 3 4 4 4 5 5 5 5 5 6 6 6 6 6 6 6 7 7 7 6 6 7 6
5 6 6 6 5 5 5 5 5 5 4 3 4 4 4 4 4 4 4 4 4 5 5 6 6 6 7 7 7 7 7 7 7 7 7 7 7 8 8 8 7 8 7
6 7 7 7 7 7 6 6 6 5 5 4 4 4 5 5 6 5 5 5 6 6 6 6 6 7 7 8 8 8 8 8 8 8 9 9 9 9 9 9 9 9 8
8 8 8 8 8 8 7 7 7 7 6 5 5 5 5 6 6 6 6 6 7 7 7 7 7 7 8 9 9 9 9 9 10 9 10 10 10 10 9 9 10 10 9
8 9 9 9 9 9 9 9 9 8 7 6 6 5 5 5 6 7 7 7 7 7 7 7 7 7 8 8 9 10 10 10 11 11 11 11 11 11 10 10 10 10 10
9 10 9 10 9 10 10 9 10 9 8 8 7 6 6 6 6 7 8 7 8 8 7 7 7 8 8 9 9 10 11 11 11 11 12 12 12 12 11 11 11 11 11
9 10 10 10 11 11 11 10 9 9 9 9 8 7 7 7 8 8 9 8 8 8 8 8 8 8 8 9 9 10 11 11 12 11 12 12 13 12 12 12 12 12 11
10 10 10 11 11 11 11 11 10 9 9 8 8 8 8 8 8 8 8 8 7 7 8 8 8 8 8 8 9 10 11 11 12 12 12 12 12 13 13 13 13 12 12
11 11 11 11 11 10 10 10 10 10 9 8 8 8 8 8 8 8 7 7 7 7 7 8 7 8 8 8 9 10 10 11 11 11 12 12 12 13 13 13 13 13 13
11 11 11 11 10 10 10 10 10 10 9 9 9 8 8 8 8 8 7 7 7 7 7 7 7 7 8 7 8 9 10 10 10 11 11 12 13 13 13 13 13 13 13
11 11 10 10 10 10 10 10 9 9 9 9 9 8 8 7 7 7 7 6 6 7 7 6 7 7 7 7 8 8 9 9 10 11 10 11 12 12 12 12 12 12 12
11 10 10 10 10 10 10 9 9 8 8 8 9 8 7 7 6 6 6 6 6 6 6 6 6 6 6 6 7 7 8 8 9 9 9 9 10 11 11 11 11 11 12
10 10 10 10 9 9 9 9 9 8 8 8 8 7 6 6 6 6 6 6 5 6 5 5 5 5 5 5 5 6 7 7 7 7 8 8 8 9 9 9 10 10 11
11 10 10 10 9 9 8 8 9 8 8 8 8 7 6 6 6 6 5 5 5 5 5 4 4 4 4 5 5 5 5 5 5 5 7 7 7 7 8 8 8 9 10
11 11 10 10 8 8 8 8 8 8 8 8 7 7 6 5 6 5 4 4 4 4 4 4 3 3 4 4 4 4 4 5 5 4 5 6 6 6 7 7 8 8 9
11 11 10 9 8 8 8 7 7 7 8 8 7 6 6 5 5 4 2 2 3 3 3 3 2 3 4 4 4 4 4 4 3 4 4 4 5 5 5 6 7 7 8
11 10 10 10 8 8 8 7 7 6 7 6 6 5 5 4 3 2 1 2 2 2 2 3 3 2 3 3 3 3 3 3 3 3 3 4 4 4 4 5 5 5 6
11 10 10 9 8 8 8 7 7 7 6 5 5 4 3 2 2 1 1 1 1 2 2 3 2 2 3 3 3 2 2 3 2 3 3 3 3 4 4 4 5 5 6
11 10 10 9 8 7 7 7 7 7 6 5 4 3 3 2 1 1 1 1 1 1 2 2 2 2 2 3 2 2 2 3 2 2 2 3 4 4 4 4 4 5 5
12 11 10 9 8 7 6 6 7 6 5 5 4 4 3 2 1 1 0 0 1 1 1 2 2 2 2 2 2 2 2 3 3 2 3 4 4 4 5 5 4 5 5
12 11 10 10 8 7 7 6 6 6 5 5 4 3 2 2 2 1 1 1 1 1 1 2 2 2 2 2 2 2 2 3 3 2 3 4 4 5 5 5 5 6 6
12 12 11 10 10 9 8 8 7 6 6 5 5 3 2 2 2 2 1 0 0 1 1 1 2 2 2 2 2 2 2 2 3 3 3 4 4 5 5 5 5 6 7
13 12 12 11 11 10 9 8 7 6 6 5 4 4 3 3 2 2 1 1 1 1 1 2 2 2 2 2 2 2 2 2 3 4 4 4 4 4 5 6 6 6 7
14 13 13 12 11 10 10 9 8 7 6 5 5 4 4 3 3 2 2 1 1 0 0 1 1 2 2 2 1 1 2 2 3 3 4 4 4 4 5 6 6 6 6
14 14 13 12 11 11 10 10 10 9 7 6 5 5 4 3 3 2 2 1 1 1 1 1 1 1 1 2 2 2 2 2 3 3 4 5 5 5 5 6 6 6 6
14 14 13 12 12 12 11 10 10 9 8 7 6 6 5 4 3 3 3 2 2 1 1 1 1 1 1 2 2 2 3 3 3 4 4 4 5 5 6 6 6 6 6
Wind_Direction
262 272 275 272 274 282 278 273 274 282 282 282 274 264 263 259 260 254 268 269 275 272 262 256 257 256 250 251 255 255 257 263 265 263 262 265 267 269 270 273 274 274 272
271 276 272 269 272 281 282 278 274 273 269 275 274 268 268 268 265 276 275 268 275 275 272 268 264 261 258 257 259 258 261 264 267 268 268 266 267 269 269 273 274 276 272
273 273 274 272 269 275 282 280 279 276 266 271 273 271 273 270 264 273 283 276 278 280 278 275 271 267 263 262 260 258 262 264 267 269 268 266 266 268 270 272 272 275 270
277 274 273 273 271 273 277 280 281 279 269 273 276 274 277 274 270 270 277 280 280 281 280 280 279 274 271 267 262 260 262 264 266 266 267 267 265 266 269 270 270 273 273
280 277 271 270 271 273 277 280 277 276 271 270 274 275 274 275 276 277 277 278 278 280 281 283 285 282 279 277 270 267 267 266 267 265 264 265 266 265 266 268 268 271 274
281 278 274 274 272 274 277 280 278 275 272 272 271 274 274 283 290 290 283 281 283 283 282 283 285 281 278 278 275 271 270 268 269 268 265 266 266 265 263 265 266 267 272
284 282 277 277 278 277 279 280 277 273 275 277 274 275 278 290 296 292 288 287 286 286 282 285 286 281 278 277 277 277 274 272 271 271 269 268 267 266 264 264 265 266 267
286 283 281 280 280 279 277 278 278 272 271 273 277 277 284 293 296 293 292 292 292 291 290 291 289 286 282 278 279 281 280 276 274 271 271 270 269 266 266 265 266 267 267
287 283 282 280 280 281 281 278 276 276 274 274 276 278 282 287 291 293 289 292 291 293 294 292 287 288 285 284 283 283 281 279 278 275 272 272 269 267 266 266 266 265 266
287 284 281 279 280 283 283 284 278 277 276 276 276 279 283 288 292 289 288 289 294 298 296 290 287 293 292 290 290 287 284 282 281 278 274 274 271 267 264 264 264 264 266
288 284 282 280 280 284 284 285 277 273 272 277 279 279 283 291 295 292 290 290 296 299 296 295 294 291 293 294 294 291 289 287 283 280 280 276 271 268 265 263 262 263 266
286 284 283 281 281 283 285 287 279 270 269 275 277 281 286 290 291 288 290 291 295 298 297 300 293 293 295 297 296 296 295 292 287 285 284 280 274 270 267 266 263 262 265
287 285 281 281 282 283 285 284 276 268 274 278 274 275 282 283 285 289 293 289 295 302 302 300 299 299 304 305 306 307 305 299 289 289 285 282 280 275 271 267 263 264 265
285 286 285 284 284 283 285 284 277 270 274 281 277 271 279 283 284 285 288 284 293 307 308 303 308 307 307 308 306 308 313 307 304 298 288 287 288 283 281 276 270 268 268
284 288 287 285 284 283 282 282 277 272 272 275 277 274 277 279 280 284 280 280 296 310 313 307 310 312 310 310 306 306 316 314 310 307 296 292 294 293 288 281 273 270 271
285 286 283 280 277 281 280 275 278 276 274 275 284 283 276 278 276 271 267 279 294 310 318 321 312 311 316 314 313 312 315 319 318 313 308 301 299 296 296 285 273 272 273
285 282 282 281 277 276 273 271 274 277 277 274 275 278 281 283 284 269 281 296 302 324 342 344 342 338 335 326 322 329 324 328 346 334 321 311 307 304 304 296 287 286 283
287 282 280 280 278 278 274 267 273 276 273 269 265 276 280 275 281 262 297 321 325 339 344 339 334 333 328 330 329 332 339 343 356 351 345 341 332 322 319 311 303 303 300
286 285 282 280 281 278 276 268 268 272 266 257 254 269 268 264 276 247 260 316 332 338 339 330 331 346 342 346 347 348 350 354 3 360 355 354 350 347 341 332 321 318 313
287 286 283 278 278 273 268 266 265 263 261 248 258 272 255 229 213 210 191 5 358 356 358 355 350 11 14 10 4 7 3 5 358 1 3 358 359 360 355 352 341 333 324
285 284 281 271 269 269 266 269 261 257 253 246 254 248 221 201 191 185 142 55 43 35 29 26 20 32 30 30 17 3 5 12 4 7 9 7 7 8 2 354 347 347 339
279 279 276 270 263 264 263 260 258 258 250 244 235 226 211 191 187 182 161 121 91 70 64 40 32 35 33 32 20 9 10 12 18 14 12 8 11 11 4 357 353 354 350
273 274 271 267 260 260 257 253 250 252 241 234 224 217 204 195 187 187 180 149 124 82 73 59 48 44 40 31 31 19 9 0 1 6 6 4 357 354 357 358 355 353 354
270 269 268 265 260 256 254 251 249 244 235 229 223 220 209 201 199 204 209 196 187 162 27 33 40 39 26 20 23 3 354 359 358 355 355 353 351 352 355 356 356 354 354
267 266 265 260 257 256 255 250 241 235 230 226 222 220 214 208 209 217 219 219 241 255 276 296 304 319 321 325 332 334 333 339 351 345 344 346 347 347 347 351 352 355 351
263 262 260 257 256 255 252 249 234 229 228 225 221 220 218 214 216 223 224 230 245 251 271 298 315 321 321 322 321 319 320 327 338 335 338 343 342 340 338 342 345 345 340